When you browse on this site, cookies collect data to enhance your experience and personalize the content and advertising you see.
Visit our Privacy Policy to learn more. By continuing to use the site, you agree to this use of cookies and data.

Meteo pe oră la Qui Nhon

Astăzi, 4 August, Marţi

Timp Temperatura Precipitaţii Vânt Presiune Umiditate
00:00 +29°C° 0 mm 3 m/s 751 mmHg 74%
01:00 +28°C° 0 mm 3 m/s 751 mmHg 81%
02:00 +28°C° 0 mm 3 m/s 751 mmHg 81%
03:00 +28°C° 0 mm 3 m/s 751 mmHg 81%
04:00 +28°C° 0 mm 3 m/s 750 mmHg 81%
05:00 +29°C° 0 mm 3 m/s 751 mmHg 79%
06:00 +29°C° 0 mm 3 m/s 751 mmHg 78%
07:00 +30°C° 0 mm 2 m/s 751 mmHg 77%
08:00 +31°C° 0 mm 2 m/s 752 mmHg 72%
09:00 +34°C° 0 mm 2 m/s 752 mmHg 66%
10:00 +35°C° 0 mm 3 m/s 752 mmHg 60%
11:00 +36°C° 0 mm 3 m/s 751 mmHg 58%
12:00 +36°C° 0 mm 3 m/s 751 mmHg 55%
13:00 +37°C° 0 mm 3 m/s 751 mmHg 52%
14:00 +37°C° 0 mm 3 m/s 750 mmHg 53%
15:00 +36°C° 0 mm 3 m/s 750 mmHg 55%
16:00 +36°C° 0 mm 3 m/s 749 mmHg 56%
17:00 +35°C° 0 mm 3 m/s 750 mmHg 63%
18:00 +33°C° 0 mm 3 m/s 750 mmHg 69%
19:00 +30°C° 0 mm 2 m/s 751 mmHg 76%
20:00 +30°C° 0 mm 2 m/s 751 mmHg 78%
21:00 +29°C° 0 mm 2 m/s 752 mmHg 80%
22:00 +29°C° 0 mm 2 m/s 752 mmHg 81%
23:00 +29°C° 0 mm 2 m/s 752 mmHg 81%

Mâine, 5 August, Miercuri

Timp Temperatura Precipitaţii Vânt Presiune Umiditate
00:00 +29°C° 0 mm 2 m/s 752 mmHg 81%
01:00 +28°C° 0 mm 2 m/s 752 mmHg 81%
02:00 +28°C° 0 mm 2 m/s 751 mmHg 81%
03:00 +28°C° 0 mm 2 m/s 751 mmHg 81%
04:00 +28°C° 0 mm 2 m/s 751 mmHg 81%
05:00 +29°C° 0 mm 2 m/s 752 mmHg 79%
06:00 +29°C° 0 mm 2 m/s 752 mmHg 77%
07:00 +30°C° 0 mm 2 m/s 752 mmHg 75%
08:00 +31°C° 0 mm 2 m/s 752 mmHg 70%
09:00 +34°C° 0 mm 2 m/s 753 mmHg 65%
10:00 +35°C° 0 mm 2 m/s 753 mmHg 60%
11:00 +36°C° 0.2 mm 2 m/s 753 mmHg 59%
12:00 +36°C° 0.2 mm 3 m/s 752 mmHg 58%
13:00 +37°C° 0.2 mm 3 m/s 752 mmHg 58%
14:00 +36°C° 1.7 mm 3 m/s 751 mmHg 65%
15:00 +34°C° 1.7 mm 2 m/s 751 mmHg 73%
16:00 +32°C° 1.7 mm 1 m/s 751 mmHg 81%
17:00 +31°C° 1.1 mm 1 m/s 751 mmHg 83%
18:00 +30°C° 1.1 mm 2 m/s 752 mmHg 86%
19:00 +29°C° 1.1 mm 2 m/s 752 mmHg 88%
20:00 +29°C° 0.1 mm 2 m/s 752 mmHg 88%
21:00 +29°C° 0.1 mm 2 m/s 753 mmHg 89%
22:00 +28°C° 0.1 mm 2 m/s 754 mmHg 90%
23:00 +28°C° 0.3 mm 2 m/s 753 mmHg 90%

Poimâine, 6 August, Joi

Timp Temperatura Precipitaţii Vânt Presiune Umiditate
00:00 +28°C° 0.3 mm 2 m/s 753 mmHg 90%
01:00 +28°C° 0.3 mm 2 m/s 753 mmHg 91%
02:00 +28°C° 0.1 mm 2 m/s 753 mmHg 91%
03:00 +28°C° 0.1 mm 2 m/s 752 mmHg 91%
04:00 +28°C° 0.1 mm 1 m/s 752 mmHg 91%
05:00 +28°C° 0 mm 1 m/s 752 mmHg 90%
06:00 +29°C° 0 mm 1 m/s 753 mmHg 89%
07:00 +29°C° 0 mm 1 m/s 753 mmHg 87%
08:00 +30°C° 0.5 mm 1 m/s 753 mmHg 83%
09:00 +31°C° 0.5 mm 1 m/s 753 mmHg 79%
10:00 +33°C° 0.5 mm 1 m/s 753 mmHg 75%
11:00 +32°C° 1.2 mm 1 m/s 753 mmHg 76%
12:00 +32°C° 1.2 mm 2 m/s 752 mmHg 78%
13:00 +32°C° 1.2 mm 2 m/s 752 mmHg 79%
14:00 +32°C° 0.9 mm 2 m/s 752 mmHg 80%
15:00 +32°C° 0.9 mm 2 m/s 751 mmHg 82%
16:00 +31°C° 0.9 mm 3 m/s 751 mmHg 83%
17:00 +31°C° 1.2 mm 2 m/s 752 mmHg 85%
18:00 +30°C° 1.2 mm 2 m/s 752 mmHg 87%
19:00 +29°C° 1.2 mm 2 m/s 752 mmHg 90%
20:00 +29°C° 0.4 mm 2 m/s 753 mmHg 90%
21:00 +28°C° 0.4 mm 1 m/s 753 mmHg 90%
22:00 +28°C° 0.4 mm 1 m/s 754 mmHg 90%
23:00 +28°C° 0.9 mm 1 m/s 753 mmHg 90%

7 August, Vineri

Timp Temperatura Precipitaţii Vânt Presiune Umiditate
00:00 +28°C° 0.9 mm 1 m/s 753 mmHg 91%
01:00 +27°C° 0.9 mm 2 m/s 752 mmHg 91%
02:00 +27°C° 0.4 mm 2 m/s 752 mmHg 91%
03:00 +27°C° 0.4 mm 2 m/s 752 mmHg 91%
04:00 +27°C° 0.4 mm 2 m/s 751 mmHg 91%
05:00 +27°C° 0.1 mm 2 m/s 752 mmHg 91%
06:00 +28°C° 0.1 mm 2 m/s 752 mmHg 90%
07:00 +28°C° 0.1 mm 2 m/s 752 mmHg 90%
08:00 +28°C° 0.3 mm 3 m/s 752 mmHg 90%
09:00 +28°C° 0.3 mm 3 m/s 752 mmHg 90%
10:00 +29°C° 0.3 mm 3 m/s 752 mmHg 90%
11:00 +29°C° 0.7 mm 3 m/s 752 mmHg 89%
12:00 +29°C° 0.7 mm 3 m/s 752 mmHg 88%
13:00 +29°C° 0.7 mm 3 m/s 751 mmHg 87%
14:00 +29°C° 1 mm 2 m/s 751 mmHg 88%
15:00 +28°C° 1 mm 2 m/s 750 mmHg 90%
16:00 +28°C° 1 mm 2 m/s 750 mmHg 91%
17:00 +28°C° 1.8 mm 2 m/s 750 mmHg 92%
18:00 +27°C° 1.8 mm 2 m/s 751 mmHg 94%
19:00 +27°C° 1.8 mm 1 m/s 751 mmHg 95%
20:00 +27°C° 1.3 mm 2 m/s 752 mmHg 95%
21:00 +27°C° 1.3 mm 2 m/s 752 mmHg 95%
22:00 +27°C° 1.3 mm 3 m/s 753 mmHg 94%
23:00 +27°C° 0.2 mm 3 m/s 752 mmHg 93%

8 August, Sâmbătă

Timp Temperatura Precipitaţii Vânt Presiune Umiditate
00:00 +27°C° 0.2 mm 3 m/s 752 mmHg 93%
01:00 +27°C° 0.2 mm 4 m/s 751 mmHg 92%
02:00 +26°C° 0.1 mm 4 m/s 751 mmHg 91%
03:00 +26°C° 0.1 mm 4 m/s 751 mmHg 90%
04:00 +26°C° 0.1 mm 4 m/s 750 mmHg 90%
05:00 +26°C° 0 mm 4 m/s 751 mmHg 89%
06:00 +26°C° 0 mm 3 m/s 751 mmHg 89%
07:00 +26°C° 0 mm 3 m/s 752 mmHg 89%
08:00 +28°C° 0 mm 3 m/s 752 mmHg 83%
09:00 +29°C° 0 mm 3 m/s 752 mmHg 78%
10:00 +30°C° 0 mm 4 m/s 752 mmHg 73%
11:00 +32°C° 0 mm 4 m/s 752 mmHg 72%
12:00 +32°C° 0 mm 4 m/s 751 mmHg 71%
13:00 +32°C° 0 mm 4 m/s 751 mmHg 70%
14:00 +32°C° 0 mm 4 m/s 750 mmHg 70%
15:00 +32°C° 0 mm 4 m/s 750 mmHg 70%
16:00 +32°C° 0 mm 4 m/s 750 mmHg 70%
17:00 +30°C° 0 mm 4 m/s 750 mmHg 75%
18:00 +29°C° 0 mm 3 m/s 750 mmHg 79%
19:00 +28°C° 0 mm 3 m/s 751 mmHg 83%
20:00 +28°C° 0 mm 3 m/s 751 mmHg 84%
21:00 +27°C° 0 mm 3 m/s 752 mmHg 85%
22:00 +27°C° 0 mm 3 m/s 752 mmHg 86%
23:00 +27°C° 0 mm 3 m/s 752 mmHg 86%

9 August, Duminică

Timp Temperatura Precipitaţii Vânt Presiune Umiditate
00:00 +27°C° 0 mm 3 m/s 752 mmHg 85%
01:00 +27°C° 0 mm 3 m/s 751 mmHg 85%
02:00 +27°C° 0 mm 3 m/s 751 mmHg 83%
03:00 +28°C° 0 mm 3 m/s 751 mmHg 81%
04:00 +28°C° 0 mm 3 m/s 751 mmHg 79%
05:00 +28°C° 0 mm 3 m/s 751 mmHg 79%
06:00 +28°C° 0 mm 3 m/s 751 mmHg 78%
07:00 +29°C° 0 mm 3 m/s 752 mmHg 78%
08:00 +30°C° 0 mm 3 m/s 752 mmHg 73%
09:00 +32°C° 0 mm 4 m/s 752 mmHg 68%
10:00 +34°C° 0 mm 4 m/s 752 mmHg 63%
11:00 +35°C° 0 mm 4 m/s 751 mmHg 60%
12:00 +36°C° 0 mm 4 m/s 751 mmHg 57%
13:00 +37°C° 0 mm 4 m/s 750 mmHg 55%
14:00 +36°C° 0 mm 4 m/s 750 mmHg 56%
15:00 +36°C° 0 mm 5 m/s 750 mmHg 57%
16:00 +36°C° 0 mm 5 m/s 749 mmHg 58%
17:00 +34°C° 0.1 mm 5 m/s 750 mmHg 64%
18:00 +33°C° 0.1 mm 5 m/s 750 mmHg 69%
19:00 +30°C° 0.1 mm 5 m/s 751 mmHg 74%
20:00 +30°C° 0 mm 4 m/s 751 mmHg 75%
21:00 +29°C° 0 mm 4 m/s 752 mmHg 77%
22:00 +29°C° 0 mm 4 m/s 752 mmHg 78%
23:00 +29°C° 0 mm 4 m/s 752 mmHg 78%
Arată mai mult